Starlink 11185

operational
NORAD ID: 62588 Int'l Des: 2025-008 Owner: SPXS Country: US Constellation: starlink
LEOCIRCULAR

Über Starlink 11185

Beschreibung wird geladen...

Live-Position

3D-Globus wird geladen...

Nächste Überflüge

Höhenverlauf

Altitude vs Time

uPlot chart will show altitude changes over time

Zweizeiliger Elementsatz

1 62588U 25008B 25305.99392316 .00128627 00000-0 98874-3 0 9996
2 62588 43.0008 175.6384 0001757 271.4547 88.6119 15.70881412 46033
Epoch: 1. Nov. 2025 • Age: 43 hours

Aktueller Status

Höhe 357.0 km
Geschwindigkeit 7.70 km/s
Subsatellitenpunkt -13.67°S, 170.71°W
Startdatum 13. Jan. 2025
Alter 0.8 years
Typ internet

Technische Details

Klassifizierung Payload
Masse 960.00 kg
Trockenmasse 910.00 kg
Gesamtmasse 960.00 kg
Länge 0.30 m
Durchmesser 4.10 m
Spannweite 29.00 m
Form Box + pan
Hersteller SPXS
Bus-Typ Starlink V2MD
Phasenstatus In Orbit
Besitzer/Staat SPXS/US

Große Konstellationen

Loading constellations...